When you browse on this site, cookies collect data to enhance your experience and personalize the content and advertising you see.
Visit our Privacy Policy to learn more. By continuing to use the site, you agree to this use of cookies and data.
  • In Latvia
  • List of Countries
  • For 7 days
  • Water Temperature
  • Weather Map
  • Weather Widgets
  • user-avatar
    Login

    Hourly Weather Allschwil

    Today, 23 September, Monday

    Time Temperature Precipitation Wind Pressure Humidity
    00:00 +16°C° 1.7 mm 3 mps 733 mmHg 94%
    01:00 +14°C° 0 mm 3 mps 733 mmHg 96%
    02:00 +14°C° 0.9 mm 3 mps 733 mmHg 95%
    03:00 +14°C° 0.9 mm 2 mps 733 mmHg 94%
    04:00 +14°C° 0.9 mm 1 mps 733 mmHg 93%
    05:00 +14°C° 0 mm 2 mps 734 mmHg 93%
    06:00 +14°C° 0 mm 2 mps 734 mmHg 94%
    07:00 +14°C° 0 mm 2 mps 734 mmHg 94%
    08:00 +14°C° 0.1 mm 2 mps 735 mmHg 91%
    09:00 +15°C° 0.1 mm 2 mps 735 mmHg 89%
    10:00 +16°C° 0.1 mm 3 mps 736 mmHg 87%
    11:00 +17°C° 0 mm 3 mps 736 mmHg 79%
    12:00 +18°C° 0 mm 3 mps 736 mmHg 71%
    13:00 +20°C° 0 mm 2 mps 736 mmHg 63%
    14:00 +19°C° 0.1 mm 3 mps 736 mmHg 64%
    15:00 +19°C° 0.1 mm 3 mps 735 mmHg 65%
    16:00 +19°C° 0.1 mm 3 mps 735 mmHg 66%
    17:00 +18°C° 0 mm 2 mps 735 mmHg 73%
    18:00 +16°C° 0 mm 2 mps 735 mmHg 81%
    19:00 +14°C° 0 mm 1 mps 736 mmHg 89%
    20:00 +14°C° 0 mm 1 mps 736 mmHg 90%
    21:00 +13°C° 0 mm 1 mps 736 mmHg 91%
    22:00 +12°C° 0 mm 1 mps 736 mmHg 92%
    23:00 +11°C° 0 mm 0 mps 736 mmHg 92%

    Tomorrow, 24 September, Tuesday

    Time Temperature Precipitation Wind Pressure Humidity
    00:00 +11°C° 0 mm 0 mps 736 mmHg 92%
    01:00 +11°C° 0 mm 0 mps 736 mmHg 92%
    02:00 +10°C° 0 mm 0 mps 735 mmHg 93%
    03:00 +10°C° 0 mm 0 mps 735 mmHg 93%
    04:00 +11°C° 0 mm 1 mps 735 mmHg 93%
    05:00 +11°C° 0 mm 1 mps 734 mmHg 93%
    06:00 +11°C° 0 mm 1 mps 734 mmHg 93%
    07:00 +11°C° 0 mm 1 mps 734 mmHg 93%
    08:00 +13°C° 0 mm 1 mps 733 mmHg 88%
    09:00 +15°C° 0 mm 1 mps 733 mmHg 82%
    10:00 +16°C° 0 mm 1 mps 733 mmHg 76%
    11:00 +18°C° 0.1 mm 1 mps 733 mmHg 75%
    12:00 +17°C° 0.1 mm 2 mps 732 mmHg 75%
    13:00 +18°C° 0.1 mm 2 mps 732 mmHg 74%
    14:00 +18°C° 0 mm 1 mps 732 mmHg 77%
    15:00 +16°C° 0 mm 1 mps 732 mmHg 80%
    16:00 +16°C° 0 mm 1 mps 732 mmHg 83%
    17:00 +15°C° 0.2 mm 1 mps 732 mmHg 85%
    18:00 +15°C° 0.2 mm 1 mps 732 mmHg 88%
    19:00 +15°C° 0.2 mm 1 mps 732 mmHg 90%
    20:00 +14°C° 0.2 mm 1 mps 732 mmHg 91%
    21:00 +14°C° 0.2 mm 1 mps 732 mmHg 92%
    22:00 +14°C° 0.2 mm 2 mps 732 mmHg 93%
    23:00 +14°C° 0.2 mm 2 mps 732 mmHg 93%

    Day after tomorrow, 25 September, Wednesday

    Time Temperature Precipitation Wind Pressure Humidity
    00:00 +14°C° 0.2 mm 2 mps 731 mmHg 94%
    01:00 +14°C° 0.2 mm 2 mps 731 mmHg 94%
    02:00 +14°C° 0.2 mm 2 mps 731 mmHg 93%
    03:00 +14°C° 0.2 mm 2 mps 731 mmHg 92%
    04:00 +13°C° 0.2 mm 3 mps 731 mmHg 92%
    05:00 +13°C° 0.1 mm 3 mps 731 mmHg 91%
    06:00 +12°C° 0.1 mm 3 mps 732 mmHg 91%
    07:00 +13°C° 0.1 mm 2 mps 732 mmHg 90%
    08:00 +13°C° 0.1 mm 3 mps 732 mmHg 85%
    09:00 +14°C° 0.1 mm 4 mps 732 mmHg 80%
    10:00 +15°C° 0.1 mm 5 mps 732 mmHg 74%
    11:00 +16°C° 0.2 mm 5 mps 732 mmHg 70%
    12:00 +17°C° 0.2 mm 5 mps 732 mmHg 65%
    13:00 +19°C° 0.2 mm 5 mps 732 mmHg 60%
    14:00 +17°C° 0.1 mm 5 mps 732 mmHg 61%
    15:00 +17°C° 0.1 mm 5 mps 732 mmHg 62%
    16:00 +17°C° 0.1 mm 5 mps 732 mmHg 63%
    17:00 +15°C° 0 mm 4 mps 732 mmHg 68%
    18:00 +14°C° 0 mm 3 mps 733 mmHg 74%
    19:00 +14°C° 0 mm 2 mps 733 mmHg 80%
    20:00 +14°C° 0 mm 2 mps 733 mmHg 80%
    21:00 +14°C° 0 mm 2 mps 734 mmHg 80%
    22:00 +14°C° 0 mm 2 mps 734 mmHg 80%
    23:00 +14°C° 0 mm 2 mps 734 mmHg 81%

    26 September, Thursday

    Time Temperature Precipitation Wind Pressure Humidity
    00:00 +14°C° 0 mm 2 mps 734 mmHg 81%
    01:00 +14°C° 0 mm 2 mps 734 mmHg 82%
    02:00 +14°C° 0.2 mm 2 mps 734 mmHg 85%
    03:00 +14°C° 0.2 mm 2 mps 734 mmHg 88%
    04:00 +14°C° 0.2 mm 2 mps 734 mmHg 90%
    05:00 +14°C° 0.3 mm 2 mps 734 mmHg 91%
    06:00 +14°C° 0.3 mm 2 mps 734 mmHg 92%
    07:00 +14°C° 0.3 mm 2 mps 735 mmHg 93%
    08:00 +15°C° 0 mm 2 mps 735 mmHg 91%
    09:00 +16°C° 0 mm 2 mps 735 mmHg 89%
    10:00 +16°C° 0 mm 2 mps 736 mmHg 87%
    11:00 +17°C° 0 mm 2 mps 736 mmHg 82%
    12:00 +19°C° 0 mm 2 mps 736 mmHg 78%
    13:00 +20°C° 0 mm 2 mps 736 mmHg 74%
    14:00 +19°C° 0 mm 2 mps 736 mmHg 77%
    15:00 +18°C° 0 mm 2 mps 736 mmHg 80%
    16:00 +18°C° 0 mm 2 mps 735 mmHg 83%
    17:00 +18°C° 0 mm 1 mps 736 mmHg 87%
    18:00 +16°C° 0 mm 1 mps 736 mmHg 90%
    19:00 +15°C° 0 mm 1 mps 736 mmHg 94%
    20:00 +15°C° 0 mm 1 mps 736 mmHg 93%
    21:00 +15°C° 0 mm 1 mps 736 mmHg 93%
    22:00 +15°C° 0 mm 1 mps 736 mmHg 93%
    23:00 +15°C° 0 mm 1 mps 736 mmHg 92%

    27 September, Friday

    Time Temperature Precipitation Wind Pressure Humidity
    00:00 +15°C° 0 mm 1 mps 736 mmHg 91%
    01:00 +15°C° 0 mm 1 mps 736 mmHg 91%
    02:00 +15°C° 0 mm 1 mps 736 mmHg 91%
    03:00 +15°C° 0 mm 1 mps 736 mmHg 91%
    04:00 +15°C° 0 mm 1 mps 736 mmHg 92%
    05:00 +15°C° 0 mm 1 mps 736 mmHg 91%
    06:00 +15°C° 0 mm 1 mps 735 mmHg 90%
    07:00 +15°C° 0 mm 1 mps 735 mmHg 89%
    08:00 +16°C° 0 mm 2 mps 735 mmHg 84%
    09:00 +18°C° 0 mm 2 mps 735 mmHg 80%
    10:00 +19°C° 0 mm 2 mps 736 mmHg 76%
    11:00 +20°C° 0 mm 3 mps 735 mmHg 72%
    12:00 +21°C° 0 mm 3 mps 735 mmHg 67%
    13:00 +22°C° 0 mm 4 mps 735 mmHg 63%
    14:00 +22°C° 0 mm 4 mps 735 mmHg 62%
    15:00 +22°C° 0 mm 4 mps 735 mmHg 62%
    16:00 +22°C° 0 mm 4 mps 735 mmHg 61%
    17:00 +20°C° 0.2 mm 3 mps 735 mmHg 70%
    18:00 +18°C° 0.2 mm 3 mps 735 mmHg 78%
    19:00 +16°C° 0.2 mm 2 mps 735 mmHg 86%
    20:00 +16°C° 0.3 mm 2 mps 735 mmHg 89%
    21:00 +16°C° 0.3 mm 2 mps 736 mmHg 91%
    22:00 +15°C° 0.3 mm 1 mps 736 mmHg 93%
    23:00 +15°C° 0.1 mm 2 mps 736 mmHg 93%

    28 September, Saturday

    Time Temperature Precipitation Wind Pressure Humidity
    00:00 +15°C° 0.1 mm 2 mps 736 mmHg 92%
    01:00 +15°C° 0.1 mm 2 mps 736 mmHg 92%
    02:00 +14°C° 0 mm 2 mps 736 mmHg 92%
    03:00 +14°C° 0 mm 2 mps 736 mmHg 93%
    04:00 +13°C° 0 mm 2 mps 736 mmHg 93%
    05:00 +13°C° 0 mm 2 mps 736 mmHg 93%
    06:00 +13°C° 0 mm 2 mps 736 mmHg 93%
    07:00 +12°C° 0 mm 3 mps 736 mmHg 92%
    08:00 +13°C° 0 mm 3 mps 736 mmHg 86%
    09:00 +13°C° 0 mm 4 mps 737 mmHg 80%
    10:00 +14°C° 0 mm 5 mps 737 mmHg 74%
    11:00 +15°C° 0 mm 5 mps 737 mmHg 69%
    12:00 +16°C° 0 mm 5 mps 737 mmHg 65%
    13:00 +16°C° 0 mm 5 mps 737 mmHg 61%
    14:00 +17°C° 0 mm 4 mps 736 mmHg 61%
    15:00 +18°C° 0 mm 4 mps 736 mmHg 60%
    16:00 +18°C° 0 mm 4 mps 736 mmHg 60%
    17:00 +16°C° 0 mm 3 mps 736 mmHg 67%
    18:00 +15°C° 0 mm 2 mps 736 mmHg 73%
    19:00 +13°C° 0 mm 2 mps 736 mmHg 80%
    20:00 +12°C° 0 mm 1 mps 736 mmHg 82%
    21:00 +12°C° 0 mm 1 mps 736 mmHg 84%
    22:00 +11°C° 0 mm 1 mps 736 mmHg 86%
    23:00 +11°C° 0 mm 1 mps 736 mmHg 86%
    Show more